#timestamp,LO_Frequency,Hit,StdDev 
1569650415.2,286046995.7,Y
1569650435.9,286046998.9,P
1569650455.7,286046996.7,P
1569650475.6,286046995.3,P
1569650495.4,286046997.3,N
1569650515.2,286046997.5,N
1569650535.1,286046997.6,N
1569650536.0,286046997.6,N
1569650555.8,286046995.7,Y
1569650575.7,286046997.2,P
1569650595.5,286047000.0,N
1569650615.3,286047002.0,N
1569650635.2,286047002.8,N
1569650655.0,286047000.5,N
1569650655.9,286047000.5,N
1569650675.7,286046999.9,N
1569650695.6,286046998.9,N
1569650715.4,286046996.5,N
1569650735.3,286046999.2,N
1569650755.1,286046999.2,N
1569650756.0,286046999.2,N
1569650775.8,286046998.6,N
1569650795.7,286046998.7,N
1569650815.5,286046999.0,N
1569650835.3,286046999.3,N
1569650855.2,286046998.4,N
1569650875.0,286046998.6,N
1569650875.9,286046998.6,N
1569650895.8,286047000.4,N
1569650915.6,286047000.4,N
1569650935.4,286047001.6,N
1569650955.3,286047000.0,N
1569650975.1,286047000.6,N
1569650995.8,286047002.3,N
1569651015.7,286046999.8,N
1569651035.5,286046998.5,N
1569651055.4,286046997.5,N
1569651075.2,286046996.9,N
1569651095.0,286046998.7,N
1569651095.9,286046998.7,N
1569651115.8,286046998.9,N
1569651135.6,286046999.0,N
1569651155.4,286046997.1,N
1569651175.3,286046999.5,N
1569651195.1,286047000.4,N
1569651215.9,286046998.6,N
1569651235.7,286046997.8,N
1569651255.5,286046994.9,Y
1569651275.4,286046995.5,P
1569651295.2,286046993.5,P
1569651315.0,286046994.1,N
1569651316.0,286046994.1,N
1569651335.8,286046993.5,Y
1569651355.6,286046998.2,P
1569651375.5,286046999.9,N
1569651395.3,286047002.6,N
1569651415.1,286047002.1,N
1569651435.9,286047002.5,N
1569651455.7,286046999.7,N
1569651475.6,286047002.2,N
1569651495.4,286047003.0,N
1569651515.2,286047003.1,N
1569651535.1,286046999.8,N
1569651536.0,286046999.8,N
1569651555.8,286047000.0,N
1569651575.6,286046998.5,N
1569651595.5,286047000.6,N
1569651615.3,286046998.8,N
1569651635.1,286046996.6,N
1569651655.9,286046997.3,N
1569651675.7,286046993.4,N
1569651695.6,286046996.2,N
1569651715.4,286046995.7,N
1569651735.2,286046996.0,N
1569651755.1,286046993.5,N
1569651756.0,286046993.5,N
1569651775.8,286046996.2,N
1569651795.7,286046997.9,N
1569651815.5,286046998.4,N
1569651835.3,286047000.7,N
1569651855.2,286046998.8,N
1569651875.9,286046997.9,N
1569651895.7,286046996.1,N
1569651915.6,286046995.9,N
1569651935.4,286046997.5,N
1569651955.2,286046997.4,N
1569651975.1,286046997.1,N
1569651976.0,286046997.1,N
1569651995.8,286046998.7,N
1569652015.7,286046998.1,N
1569652035.5,286047000.2,N
1569652055.3,286047011.9,Y
1569652075.2,286047003.9,P
1569652095.0,286047001.9,N
1569652095.9,286047001.9,N
1569652115.8,286046999.9,N
1569652135.6,286046998.4,N
1569652155.4,286047001.1,N
1569652175.3,286046998.3,N
1569652195.1,286047001.0,N
1569652215.9,286046998.6,N
1569652235.7,286046998.6,N
1569652255.5,286047001.2,N
1569652275.4,286046996.7,N
1569652295.2,286046997.9,N
1569652315.0,286046995.6,N
1569652315.9,286046995.6,N
1569652335.8,286046991.9,Y
1569652355.6,286046994.1,P
1569652375.5,286046993.4,N
1569652395.3,286046994.0,N
1569652415.1,286046994.2,N
1569652435.9,286046991.8,Y
1569652455.7,286046997.2,P
1569652475.6,286046997.6,N
1569652495.4,286046995.3,P
1569652515.2,286046995.5,Y
1569652535.1,286047002.6,P
1569652536.0,286047002.6,N
1569652555.8,286047000.6,N
1569652575.6,286047001.1,N
1569652595.5,286046999.0,N
1569652615.3,286047000.5,N
1569652635.2,286046999.7,N
1569652655.9,286047001.3,N
1569652675.7,286047002.1,N
1569652695.6,286046999.7,N
1569652715.4,286047002.4,N
1569652735.2,286047000.0,N
1569652755.1,286046999.4,N
1569652756.0,286046999.4,N
1569652775.8,286047001.0,N
1569652795.7,286047000.1,N
1569652815.5,286047000.4,N
1569652835.3,286047000.2,N
1569652855.2,286046998.2,N
1569652875.0,286047001.2,N
1569652875.9,286047001.2,N
1569652895.7,286046999.7,N
1569652915.6,286047000.7,N
1569652935.4,286047000.3,N
1569652955.3,286047000.9,N
1569652975.1,286046999.5,N
1569652976.0,286046999.5,N
1569652995.8,286046999.4,N
1569653015.7,286046999.3,N
1569653035.5,286046999.2,N
1569653055.3,286046998.4,N
1569653075.2,286046997.1,N
1569653095.0,286046996.8,N
1569653095.9,286046996.8,N
1569653115.8,286046999.2,N
1569653135.6,286046997.2,N
1569653155.4,286046997.8,N
1569653175.3,286046995.1,Y
1569653195.1,286046993.8,P
1569653215.9,286046986.3,P
1569653235.7,286046994.8,N
1569653255.5,286046993.9,N
1569653275.4,286046992.6,N
1569653295.2,286046990.3,N
1569653315.0,286046990.1,N
1569653315.9,286046990.1,N
1569653335.8,286046990.9,N
1569653355.6,286046990.7,N
1569653375.4,286046990.5,N
1569653395.3,286046994.6,N
1569653415.1,286046994.2,N
1569653435.9,286046993.7,N
1569653455.7,286046997.8,N
1569653475.5,286046997.1,N
1569653495.4,286046999.2,N
1569653515.2,286046997.4,N
1569653535.0,286046997.6,N
1569653535.9,286046997.6,N
1569653555.8,286046998.0,N
1569653575.6,286046997.2,N
1569653595.5,286046999.1,N
1569653615.3,286046999.5,N
1569653635.1,286046997.8,N
1569653655.9,286046997.7,N
1569653675.7,286046996.7,N
1569653695.5,286046997.8,N
1569653715.4,286046995.1,N
1569653735.2,286046995.5,N
1569653755.1,286046997.2,N
1569653756.0,286046997.2,N
1569653775.8,286046995.4,N
1569653795.6,286046995.3,N
1569653815.5,286046996.4,N
1569653835.3,286046995.0,N
1569653855.1,286046996.2,N
1569653875.9,286046995.7,N
1569653895.7,286046995.1,N
1569653915.6,286046994.1,N
1569653935.4,286046998.0,N
1569653955.2,286046997.5,N
1569653975.1,286046996.0,N
1569653976.0,286046996.0,N
1569653995.8,286046994.0,Y
